Probability
0 0 0 0 0 0 0 0 0 0 0 0 0 3 3 6 3 3 6 6 6 6 6 10 10 10 10 10 10 10 10 10 13 16 16 13 13 6 3 3 3 3 3 3
0 0 0 0 0 0 0 0 0 0 3 0 0 3 3 0 0 3 6 3 6 10 10 13 13 10 13 13 10 10 10 13 19 23 16 13 13 10 6 10 13 10 13 10
0 0 0 0 0 0 0 0 0 0 0 0 0 3 3 3 0 3 6 3 6 10 6 13 10 10 13 13 13 10 13 16 19 23 16 13 13 13 13 10 10 6 10 13
0 0 0 0 0 0 0 0 0 0 0 0 0 0 0 0 3 3 6 10 6 6 6 10 10 10 10 10 13 13 13 19 23 23 26 23 19 16 6 3 6 10 6 13
0 0 0 0 0 0 0 0 0 0 0 0 0 0 0 3 3 0 0 6 10 6 6 10 13 10 6 13 16 16 13 23 23 29 29 26 23 19 16 13 10 13 13 13
0 0 0 0 0 0 0 0 0 0 0 0 0 0 0 0 3 3 0 3 3 16 13 10 10 6 16 23 26 19 16 23 16 19 19 16 13 13 16 16 10 6 6 6
0 0 0 0 0 0 0 0 0 0 0 0 0 0 0 0 0 3 3 10 10 19 23 19 16 16 16 16 23 26 29 29 23 13 13 10 10 6 6 16 13 16 10 13
0 0 0 0 0 0 0 0 0 0 0 0 0 0 0 0 0 0 10 13 13 13 19 13 10 13 16 10 13 26 23 19 19 16 10 10 13 13 16 13 16 16 13 13
0 0 0 0 0 0 0 0 0 0 0 0 0 0 0 0 0 3 6 10 13 13 13 16 6 10 10 19 16 10 13 16 19 19 13 13 10 13 16 16 16 16 16 16
0 0 0 0 0 0 0 0 0 0 0 0 0 0 0 0 0 10 6 13 10 6 16 6 10 10 16 16 10 10 13 19 16 19 19 16 16 19 16 16 16 19 16 19
0 0 0 0 0 0 0 0 0 0 0 0 0 0 0 0 3 10 10 10 10 10 13 16 13 13 13 16 13 6 13 16 13 13 16 16 19 19 23 16 19 19 16 19
0 0 0 0 0 0 0 0 0 0 0 0 0 0 0 0 0 10 6 6 6 6 10 6 10 13 13 10 13 13 13 16 13 13 19 13 13 16 19 13 16 19 26 19
0 0 0 0 0 0 0 0 0 0 0 0 0 0 3 3 0 3 6 13 6 6 3 6 13 13 13 13 13 13 16 10 13 16 13 16 19 16 23 23 26 23 19 23
0 0 0 0 0 0 0 0 0 0 0 0 0 0 0 10 6 3 3 0 3 3 6 13 13 10 6 3 6 13 19 19 10 16 16 23 23 16 13 16 19 19 23 19
0 0 0 0 0 0 0 0 0 0 0 0 0 0 0 6 6 3 6 6 6 6 10 6 10 3 3 3 3 6 13 16 16 10 10 10 16 16 16 16 16 16 16 13
0 0 0 0 0 0 0 0 0 0 0 0 0 3 0 3 3 3 10 26 19 10 13 13 13 6 3 3 3 6 10 10 13 13 10 10 16 16 19 16 16 16 13 13
0 0 0 0 0 0 0 0 0 0 0 0 3 3 3 3 10 23 26 29 23 16 13 10 13 10 10 6 6 6 6 10 13 16 13 10 13 19 19 16 13 13 13 13
0 0 0 0 0 0 0 0 0 0 3 3 0 3 3 6 3 13 10 10 19 13 13 13 13 10 10 6 6 6 10 13 16 19 19 13 13 16 16 16 13 13 13 13
0 0 0 0 0 0 0 0 0 0 0 0 3 6 10 13 13 6 13 10 13 10 13 16 13 6 6 10 10 6 10 13 16 16 19 16 16 16 19 19 13 13 13 13
0 0 0 0 0 0 0 0 0 0 0 0 3 6 6 10 13 3 6 10 3 10 10 19 16 10 6 10 10 13 13 10 16 16 13 13 13 13 16 13 6 6 10 6
0 0 0 0 0 0 0 3 0 0 0 6 6 0 0 3 3 3 3 3 3 10 10 16 16 13 13 13 13 16 13 10 13 6 6 10 10 6 10 6 6 3 6 6
0 0 0 0 0 0 0 3 10 10 3 6 6 3 3 3 3 3 3 6 6 6 10 10 16 13 16 16 16 16 10 10 10 6 6 6 3 6 13 10 10 6 6 3
0 0 0 0 0 0 0 0 3 3 6 6 6 6 6 6 10 6 13 13 13 13 10 13 16 13 6 10 10 16 6 6 6 6 3 3 6 6 6 6 6 3 3 3
0 0 0 0 0 0 0 3 3 6 10 10 10 6 10 10 10 10 10 10 10 10 10 13 10 10 6 10 3 10 10 13 3 3 3 3 6 6 6 3 3 0 0 0
0 0 0 0 0 0 0 3 3 6 6 6 10 10 13 10 13 10 10 10 10 10 10 10 6 6 6 0 3 3 6 13 6 6 0 3 6 3 3 3 3 0 0 0
0 0 0 0 0 0 0 3 3 0 6 6 13 13 13 13 10 10 13 13 10 10 10 10 10 6 3 3 3 3 3 3 3 6 3 6 3 3 3 3 6 0 0 0
Height
5927 5928 5928 5929 5929 5929 5929 5928 5928 5927 5927 5926 5925 5925 5925 5923 5921 5920 5918 5917 5914 5913 5911 5909 5907 5905 5903 5901 5900 5898 5896 5894 5893 5891 5890 5888 5887 5886 5884 5883 5882 5881 5880 5879
5927 5927 5928 5928 5928 5928 5928 5928 5927 5927 5927 5926 5924 5924 5923 5922 5920 5919 5917 5916 5914 5913 5911 5909 5907 5906 5904 5901 5899 5898 5895 5894 5892 5890 5889 5888 5886 5885 5883 5882 5881 5880 5879 5878
5925 5926 5926 5926 5926 5926 5927 5927 5927 5926 5926 5925 5924 5922 5921 5921 5920 5917 5916 5915 5913 5912 5910 5909 5907 5905 5903 5901 5899 5897 5894 5892 5891 5889 5888 5886 5885 5884 5882 5881 5880 5879 5877 5877
5922 5923 5924 5925 5925 5925 5926 5925 5925 5925 5925 5924 5924 5922 5921 5919 5918 5916 5915 5913 5912 5910 5909 5907 5905 5904 5902 5900 5898 5896 5894 5891 5889 5888 5886 5885 5884 5882 5881 5880 5878 5877 5876 5875
5920 5921 5922 5923 5924 5924 5924 5924 5924 5924 5923 5923 5923 5921 5920 5918 5917 5915 5913 5912 5910 5908 5907 5906 5904 5902 5901 5898 5896 5894 5892 5890 5888 5886 5884 5883 5882 5880 5879 5878 5877 5875 5874 5873
5918 5919 5920 5921 5921 5922 5922 5922 5922 5922 5922 5922 5921 5919 5918 5916 5915 5913 5912 5911 5909 5908 5906 5904 5902 5899 5898 5896 5894 5892 5890 5888 5886 5884 5882 5881 5879 5878 5877 5876 5875 5873 5872 5870
5916 5917 5918 5919 5919 5920 5920 5921 5921 5921 5920 5920 5919 5917 5917 5915 5912 5911 5910 5910 5908 5906 5904 5902 5900 5897 5896 5894 5892 5890 5888 5886 5884 5882 5880 5878 5877 5876 5875 5873 5872 5871 5870 5868
5913 5915 5916 5916 5917 5917 5918 5919 5919 5919 5918 5917 5916 5915 5915 5912 5910 5909 5908 5908 5907 5905 5903 5901 5899 5896 5894 5893 5889 5887 5886 5884 5882 5880 5878 5876 5875 5873 5872 5871 5869 5868 5867 5865
5910 5912 5913 5913 5914 5915 5915 5916 5916 5916 5915 5914 5913 5912 5912 5910 5908 5907 5907 5906 5905 5902 5901 5899 5897 5895 5893 5890 5888 5886 5884 5882 5880 5878 5876 5874 5873 5871 5870 5868 5867 5865 5864 5862
5906 5909 5910 5911 5911 5911 5912 5913 5913 5912 5912 5911 5910 5909 5909 5908 5907 5905 5905 5904 5902 5901 5899 5897 5895 5893 5890 5888 5886 5884 5882 5880 5878 5876 5874 5872 5870 5869 5867 5866 5864 5863 5861 5859
5903 5905 5907 5908 5908 5909 5910 5910 5909 5909 5908 5907 5906 5908 5906 5905 5904 5903 5902 5901 5900 5899 5897 5895 5893 5891 5888 5886 5884 5881 5879 5877 5876 5874 5872 5870 5867 5866 5864 5862 5861 5859 5858 5856
5899 5901 5903 5904 5905 5906 5906 5906 5905 5906 5905 5904 5903 5906 5902 5902 5901 5900 5899 5899 5897 5896 5894 5892 5890 5888 5886 5884 5882 5879 5877 5875 5873 5871 5869 5867 5864 5862 5861 5859 5857 5855 5854 5852
5896 5897 5899 5900 5903 5903 5902 5902 5902 5902 5901 5901 5900 5902 5899 5898 5898 5897 5896 5895 5894 5893 5891 5889 5887 5885 5883 5881 5879 5877 5874 5872 5870 5868 5866 5863 5861 5859 5857 5855 5853 5851 5849 5847
5892 5893 5895 5896 5897 5897 5898 5898 5898 5898 5897 5897 5897 5897 5896 5895 5895 5894 5893 5892 5891 5890 5888 5887 5884 5882 5880 5878 5876 5873 5871 5869 5866 5864 5861 5859 5857 5856 5854 5851 5849 5847 5844 5842
5887 5888 5889 5890 5891 5892 5892 5893 5893 5893 5893 5893 5893 5892 5892 5892 5891 5890 5889 5888 5887 5886 5884 5883 5880 5878 5876 5874 5872 5869 5867 5864 5862 5860 5857 5855 5853 5851 5849 5847 5844 5841 5839 5837
5881 5882 5884 5885 5886 5887 5887 5888 5888 5888 5888 5888 5888 5888 5887 5887 5886 5886 5885 5883 5882 5881 5880 5878 5876 5874 5872 5869 5867 5865 5862 5860 5858 5855 5853 5851 5848 5846 5844 5842 5839 5836 5834 5831
5875 5877 5878 5880 5881 5881 5882 5883 5883 5883 5883 5883 5883 5884 5883 5883 5881 5881 5880 5879 5878 5876 5875 5873 5871 5869 5867 5865 5862 5860 5858 5855 5852 5850 5848 5845 5843 5841 5839 5836 5833 5831 5828 5825
5869 5871 5872 5873 5875 5876 5879 5877 5878 5878 5878 5878 5878 5878 5879 5878 5877 5876 5875 5874 5873 5872 5870 5868 5866 5865 5862 5860 5857 5855 5852 5849 5847 5845 5842 5840 5838 5835 5833 5830 5827 5825 5822 5819
5863 5865 5866 5867 5868 5869 5871 5871 5872 5872 5872 5872 5872 5873 5873 5873 5872 5870 5869 5869 5867 5866 5865 5863 5861 5859 5857 5855 5852 5849 5846 5844 5841 5839 5837 5834 5832 5829 5827 5824 5821 5818 5815 5812
5857 5859 5860 5860 5861 5863 5866 5866 5865 5867 5866 5867 5867 5867 5867 5866 5866 5865 5863 5863 5861 5860 5858 5857 5855 5853 5851 5849 5846 5844 5841 5838 5836 5834 5831 5828 5826 5823 5820 5817 5814 5811 5808 5805
5852 5852 5853 5854 5855 5856 5859 5860 5860 5861 5862 5861 5861 5861 5861 5860 5860 5859 5857 5856 5855 5853 5852 5851 5849 5847 5845 5843 5840 5838 5835 5832 5830 5827 5824 5822 5819 5816 5813 5810 5807 5804 5801 5798
5845 5846 5847 5848 5849 5852 5852 5853 5854 5855 5855 5855 5855 5855 5854 5853 5852 5851 5851 5849 5848 5846 5845 5844 5842 5840 5838 5836 5834 5831 5828 5826 5823 5820 5817 5814 5811 5808 5805 5803 5800 5797 5794 5791
5839 5841 5841 5843 5845 5845 5846 5847 5848 5848 5849 5849 5849 5848 5848 5847 5846 5845 5844 5843 5841 5840 5838 5837 5835 5833 5831 5829 5826 5824 5821 5818 5815 5812 5809 5806 5803 5800 5798 5795 5793 5790 5787 5784
5832 5833 5834 5835 5837 5838 5839 5840 5841 5842 5843 5843 5843 5842 5841 5840 5839 5839 5838 5837 5835 5833 5831 5830 5828 5826 5823 5821 5818 5815 5813 5810 5807 5804 5802 5799 5796 5793 5790 5787 5785 5782 5779 5776
5826 5827 5828 5829 5830 5831 5832 5833 5834 5835 5836 5836 5836 5836 5835 5834 5834 5833 5832 5830 5829 5827 5824 5822 5820 5818 5815 5813 5810 5807 5804 5801 5799 5796 5793 5791 5788 5785 5782 5780 5777 5774 5772 5768
5819 5820 5821 5822 5824 5825 5826 5827 5827 5828 5829 5830 5830 5829 5828 5827 5827 5826 5825 5823 5821 5820 5818 5815 5813 5811 5808 5805 5802 5799 5796 5793 5790 5788 5785 5782 5780 5777 5774 5772 5769 5766 5763 5760
Wind_Speed
7 5 5 5 3 1 1 1 1 2 4 6 7 9 10 10 11 11 11 11 11 12 11 11 10 10 9 9 9 9 9 8 7 6 6 6 6 6 7 6 5 5 4 4
8 7 6 6 4 3 2 2 2 1 3 5 8 9 10 10 11 11 12 11 11 11 11 11 11 10 9 8 8 9 8 8 8 7 7 6 6 6 6 6 5 5 5 5
9 7 6 6 3 3 4 3 3 3 5 7 9 9 11 10 11 11 11 12 12 11 10 10 11 11 10 10 10 10 9 9 8 7 7 6 6 6 6 6 6 5 5 5
10 8 6 5 4 4 5 4 4 5 7 8 10 10 10 11 11 11 11 12 11 10 11 12 11 11 11 11 11 11 11 10 9 8 8 8 7 7 7 6 6 6 7 7
10 8 8 7 7 7 7 6 7 7 8 7 8 11 10 11 12 11 11 11 11 11 11 11 11 11 11 11 12 12 11 11 10 10 9 9 9 8 8 8 7 8 8 9
11 10 9 9 8 8 8 7 7 7 8 8 9 10 9 10 11 10 10 12 11 11 11 12 11 10 10 11 12 12 11 11 11 10 10 10 10 9 9 8 8 8 9 10
12 11 10 9 8 8 8 8 8 7 8 9 10 11 10 10 11 9 8 10 11 11 12 12 13 11 11 11 11 12 12 11 11 11 10 10 10 9 9 9 10 11 11 12
13 12 10 9 8 8 9 10 10 9 9 10 11 11 10 10 8 8 7 9 10 11 12 13 14 15 13 13 12 12 11 12 12 11 11 11 10 10 10 11 11 12 12 13
13 11 10 10 9 10 11 12 11 11 10 10 11 11 11 10 9 9 8 10 10 11 12 12 13 15 15 15 13 12 12 12 13 12 12 12 11 11 12 12 13 13 13 14
13 12 11 10 11 12 12 11 12 11 11 12 13 12 12 10 9 9 10 11 10 11 12 13 13 14 15 15 15 14 14 13 13 13 13 12 12 13 13 13 14 14 14 14
13 14 13 13 13 12 13 13 13 12 12 13 14 13 13 12 10 11 11 12 12 12 13 14 14 15 15 15 15 15 14 13 14 14 14 14 14 13 13 14 14 15 15 16
15 15 15 15 14 14 14 14 13 13 14 14 15 15 14 13 11 11 12 13 13 13 14 14 15 15 15 15 15 15 15 14 15 15 15 15 15 14 15 15 15 16 17 17
16 16 17 17 17 16 16 15 14 14 15 15 15 15 16 15 14 13 13 14 14 14 14 15 16 16 16 16 16 15 15 16 16 16 16 16 16 16 16 17 17 18 18 18
17 18 19 20 18 17 16 16 15 16 17 16 16 17 17 16 17 17 16 15 16 15 15 16 17 17 16 16 16 16 17 18 17 18 18 18 17 17 18 18 19 19 19 19
19 19 19 20 19 18 18 17 17 17 17 16 16 17 18 18 18 18 17 17 17 17 17 17 18 18 17 17 18 18 18 18 18 18 19 19 19 19 19 20 20 21 20 20
21 21 21 20 20 20 20 19 18 18 18 18 18 17 17 18 19 19 20 19 18 19 19 19 19 20 19 19 19 20 20 19 19 20 20 20 21 21 21 21 21 21 21 22
22 22 22 21 21 21 21 21 21 20 19 20 19 18 18 19 19 20 21 20 20 20 21 21 21 20 20 20 21 21 21 21 20 21 20 21 21 22 22 22 23 23 23 23
23 23 23 22 21 23 21 21 21 21 21 21 20 20 20 20 20 22 22 21 20 21 21 21 21 20 20 21 22 23 23 22 21 21 22 22 23 23 23 24 24 24 24 25
24 24 23 23 24 23 22 21 21 22 22 21 22 22 22 22 22 23 22 21 21 20 21 21 22 22 22 23 24 25 25 24 23 23 23 24 24 24 24 24 25 25 25 26
23 23 23 23 23 23 21 21 22 23 23 22 23 22 22 22 22 22 23 23 22 22 22 22 23 24 24 25 25 25 24 24 24 24 24 25 25 25 25 25 25 25 26 26
22 22 23 23 23 23 22 22 23 24 24 23 23 24 23 23 22 22 23 23 24 24 24 23 23 24 25 25 25 25 25 25 25 26 26 26 26 26 26 26 26 26 26 27
22 23 24 24 24 23 23 24 25 25 24 24 24 24 24 23 23 23 24 25 26 26 25 24 24 25 25 26 26 26 26 27 27 27 27 28 27 27 27 26 26 26 27 27
23 24 25 26 25 24 23 24 24 25 24 23 22 22 22 21 22 23 24 25 26 25 25 25 26 26 27 27 27 27 28 27 28 28 28 28 28 27 26 26 26 27 27 27
24 24 25 25 25 25 25 26 25 24 23 22 22 22 21 20 21 22 23 24 25 25 26 27 27 28 28 28 29 29 29 29 29 29 28 28 28 28 28 27 27 27 28 28
24 24 25 26 25 26 26 27 26 26 25 24 23 22 21 20 21 22 24 24 25 26 26 27 28 28 28 29 28 28 29 29 29 29 28 28 28 28 28 27 28 28 28 28
23 24 24 25 25 26 26 27 26 25 25 24 24 23 22 21 22 23 23 24 25 25 26 26 27 28 29 28 28 28 29 29 29 29 28 28 28 27 27 27 27 28 28 28
Wind_Direction
195 204 206 191 178 147 168 268 356 341 341 335 334 335 339 350 357 354 360 1 0 3 3 5 7 10 9 8 2 360 3 0 360 358 355 358 359 1 4 4 358 348 336 328
202 206 215 208 202 216 233 248 356 309 302 315 322 327 331 338 348 354 353 354 359 5 2 2 2 360 359 359 356 353 355 354 354 351 349 347 349 351 349 354 352 341 329 319
207 213 221 217 203 223 253 265 275 279 290 304 309 317 324 336 343 346 350 351 351 358 360 359 354 353 353 352 355 353 351 350 346 342 340 337 338 342 342 343 345 336 326 317
209 214 227 236 236 242 243 255 266 274 289 297 306 312 317 328 338 343 348 350 351 354 356 353 348 347 348 349 348 348 349 346 341 333 330 327 327 328 328 332 336 325 317 313
214 214 222 235 240 243 240 252 268 273 278 286 297 308 309 322 330 335 341 347 352 350 347 346 344 341 343 342 340 340 342 341 338 332 325 321 320 321 318 319 323 322 318 316
221 221 225 234 244 251 252 253 268 275 275 279 294 306 312 319 326 334 335 341 343 342 338 338 337 335 337 338 336 334 333 334 335 332 330 327 322 319 317 316 315 317 317 311
230 232 235 235 246 247 261 264 270 271 274 282 294 303 312 318 317 322 329 333 332 334 334 334 335 332 332 333 333 330 328 329 330 329 326 323 322 324 321 315 312 313 316 313
237 237 236 238 243 249 262 269 270 279 281 282 289 297 307 311 317 314 317 324 324 328 330 332 333 334 333 333 332 330 329 330 330 329 326 322 322 321 318 313 309 310 312 313
242 235 231 237 238 252 255 257 265 274 276 280 286 288 296 308 316 306 309 322 325 327 327 330 332 330 331 332 334 334 333 333 333 332 329 323 319 316 315 313 310 311 311 312
241 235 229 235 239 243 247 250 254 262 271 281 281 286 296 307 314 306 312 317 322 328 329 327 329 329 330 332 334 334 332 333 334 333 327 321 315 312 311 311 309 307 305 307
240 240 233 235 240 244 247 254 260 265 270 279 283 288 296 304 300 300 306 314 313 315 317 320 324 325 326 329 330 331 328 329 330 328 326 322 317 312 310 309 309 307 304 303
239 244 240 239 245 251 252 261 265 266 269 270 275 284 289 294 292 294 302 310 314 318 316 317 323 325 326 326 325 323 323 322 321 320 319 318 318 312 309 307 305 305 305 302
242 246 245 242 244 249 253 261 268 268 267 270 272 280 285 290 289 291 298 307 311 313 314 318 320 321 320 320 319 317 316 317 317 316 315 315 314 313 310 308 306 305 304 302
246 247 248 246 248 250 252 259 262 263 262 264 268 273 280 284 289 288 292 299 305 309 310 312 315 316 316 316 317 315 313 313 313 313 312 309 309 309 309 308 307 306 303 301
247 249 247 245 244 246 250 254 256 257 260 263 269 273 279 283 288 287 289 295 301 307 310 307 308 310 311 311 312 310 310 308 307 307 308 307 306 306 306 305 304 303 302 301
247 248 245 245 246 245 247 249 254 258 261 262 266 271 277 284 287 287 289 293 299 304 304 304 304 307 309 309 309 308 307 306 306 305 305 305 304 304 305 306 306 303 302 302
243 246 245 247 247 249 249 250 255 258 259 259 264 270 277 283 282 284 289 290 293 298 301 303 304 305 305 306 306 306 304 303 303 302 303 304 303 303 303 303 304 303 302 301
245 245 247 249 248 246 250 250 254 258 260 262 265 270 275 277 281 284 286 289 292 294 297 299 300 301 302 303 305 306 306 304 303 302 302 303 303 302 301 301 302 302 301 300
248 248 249 249 250 249 250 251 253 257 261 264 267 270 273 276 283 285 287 289 295 295 295 297 297 298 300 302 303 304 304 305 304 303 303 302 301 300 300 301 302 302 302 300
249 250 251 250 251 252 250 251 256 260 263 265 269 271 275 279 282 284 287 289 291 294 295 296 296 296 299 300 301 303 303 303 303 303 302 302 300 299 299 300 301 301 301 300
248 250 251 252 253 254 252 251 254 258 264 267 271 273 275 279 281 283 286 289 289 292 294 295 295 297 298 298 300 302 303 303 302 303 303 303 301 300 300 300 301 301 300 300
247 251 250 251 251 253 254 253 254 258 262 266 270 273 277 279 282 285 285 286 289 291 291 293 295 297 297 298 300 302 302 302 302 302 302 302 300 300 299 298 300 301 301 301
247 250 253 253 254 255 255 255 257 259 262 267 271 273 275 278 281 283 284 286 290 291 292 293 294 295 295 297 299 301 302 301 301 300 300 300 300 299 298 298 298 300 301 301
247 248 251 252 253 255 258 259 259 260 263 268 272 276 275 278 281 280 282 287 291 292 292 292 293 294 297 298 299 299 300 300 300 299 299 298 298 298 298 297 297 298 299 299
249 251 252 254 254 255 257 258 260 261 263 268 271 275 277 280 282 282 284 286 287 289 291 292 294 296 298 299 299 300 301 300 299 298 298 298 297 297 297 297 297 297 297 298
251 253 253 253 252 254 255 257 259 261 264 267 270 274 275 277 280 281 283 284 286 288 291 293 294 296 298 299 300 301 301 301 300 300 299 298 298 297 298 297 298 298 298 298